[[{"header":{"parameterUnit":"m.s-1","parameterCategory":1,"la1":30.2991,"la2":30.254,"lo1":-89.0895,"lo2":-89.0444,"dy":0.0017,"dx":0.0017,"nx":28,"ny":28,"refTime":"2023-09-01T03:00:00:Z","depth":0,"parameterNumber":2,"parameterNumberName":"U-component_of_WINDS"},"data":[0,0,0,0,0,0,0,0,0,0,0,0,0,0,0,0,0,0,0,0,0,0,0,0,0,0,0,0,0,0,0,0,0,0,0,0,0,0,0,0,0,0,0,0,0,0,0,0,0,0,0,0,0,0,0,0,0,0,-2.7199,-2.7198,0,-2.7175,-2.7174,-2.7174,-2.7106,-2.7104,-2.7103,-2.7101,-2.7078,-2.7079,-2.7079,0,0,0,0,0,0,0,0,0,0,0,0,0,-2.7187,-2.7187,-2.7199,-2.7198,-2.7198,-2.7175,-2.7174,-2.7174,-2.7106,-2.7104,-2.7102,-2.71,-2.7078,-2.7079,-2.708,0,0,0,0,0,0,0,0,0,0,0,0,0,-2.718,-2.7187,-2.7199,-2.7161,-2.7158,-2.7175,-2.7174,-2.7174,-2.7106,-2.7104,-2.7102,-2.71,-2.7077,-2.7079,-2.708,-2.7132,0,0,-2.7083,-2.7084,0,0,0,0,0,0,0,0,-2.7181,-2.7181,-2.7167,-2.7164,-2.716,-2.7141,-2.7161,-2.716,-2.7107,-2.7126,-2.7101,-2.7098,-2.7101,-2.71,-2.71,-2.7131,-2.713,-2.7083,-2.7084,-2.7085,-2.7085,0,0,0,0,0,0,0,-2.7181,-2.7181,-2.7189,-2.7167,-2.7163,-2.7146,-2.7143,-2.7161,-2.7126,-2.7124,-2.7119,-2.7117,-2.7098,-2.7099,-2.7099,-2.7129,-2.7083,-2.7084,-2.7085,-2.7086,-2.72,-2.7203,0,0,0,0,0,0,-2.7187,-2.7182,-2.719,-2.7189,-2.7165,-2.7148,-2.7144,-2.7149,-2.7126,-2.712,-2.7119,-2.7114,-2.7098,-2.7098,-2.7098,-2.7157,-2.7085,-2.7086,-2.7086,-2.7198,-2.7201,-2.7204,0,0,0,0,0,0,-2.7187,-2.7188,-2.7191,-2.7184,-2.7183,-2.7151,-2.7157,-2.715,-2.7151,-2.7122,-2.7116,-2.7126,-2.7097,-2.7097,-2.7124,-2.7155,-2.7086,-2.7087,-2.7195,-2.7199,-2.7202,-2.7275,0,0,0,0,0,0,-2.7187,-2.7189,-2.7208,-2.7185,-2.7184,-2.7217,-2.7159,-2.7151,-2.7153,-2.7146,-2.7127,-2.7122,-2.7095,-2.7122,-2.7125,-2.7155,-2.7088,-2.7192,-2.7197,-2.7201,-2.727,-2.7281,-2.729,0,0,0,0,0,-2.7187,-2.723,-2.7209,-2.7211,-2.7207,-2.7219,-2.7218,-2.7186,-2.7156,-2.7175,-2.7156,-2.7122,-2.7152,-2.7126,-2.7128,-2.7159,-2.719,-2.7196,-2.7201,-2.7265,-2.7279,-2.729,0,0,0,0,0,0,-2.7258,-2.7226,-2.7203,-2.724,-2.7233,-2.7207,-2.723,-2.7201,-2.7202,-2.7196,-2.7156,-2.7153,-2.7185,-2.7175,-2.7147,-2.7208,-2.7165,-2.7171,-2.7214,-2.7226,-2.7236,-2.7237,-2.7089,0,0,0,0,0,-2.7278,-2.729,-2.7261,-2.7297,-2.7294,-2.7263,-2.7267,-2.7243,-2.7234,-2.723,-2.7214,-2.7206,-2.7214,-2.7219,-2.7225,-2.7268,-2.7263,-2.7291,-2.7301,-2.731,-2.7315,-2.7337,-2.7349,-2.7221,-2.7221,-2.7221,0,0,-2.732,-2.7304,-2.7314,-2.7311,-2.7302,-2.7315,-2.7261,-2.7277,-2.7287,-2.7233,-2.7257,-2.7245,-2.7234,-2.727,-2.7284,-2.7262,-2.735,-2.7317,-2.7324,-2.7324,-2.7344,-2.7356,-2.7367,-2.7225,-2.7224,-2.7223,0,0,-2.7402,-2.7391,-2.7419,-2.7411,-2.7399,-2.7377,-2.7384,-2.7363,-2.7353,-2.7376,-2.7336,-2.7347,-2.7361,-2.7354,-2.7353,-2.7433,-2.7402,-2.7436,-2.7489,-2.751,-2.752,-2.7529,-2.7557,-2.7567,-2.7441,-2.7442,-2.7442,0,-2.7455,-2.7473,-2.7437,-2.7456,-2.7456,-2.7407,-2.7435,-2.743,-2.742,-2.7421,-2.7396,-2.7412,-2.7401,-2.7434,-2.7453,-2.7454,-2.7461,-2.7437,-2.7522,-2.753,-2.7538,-2.7563,-2.7574,-2.7446,-2.7445,-2.7445,-2.7444,0,-2.7539,-2.7552,-2.7576,-2.7566,-2.7569,-2.7593,-2.7561,-2.7568,-2.7544,-2.7525,-2.755,-2.7535,-2.7536,-2.7543,-2.752,-2.7572,-2.7559,-2.7529,-2.7484,-2.7555,-2.7578,-2.7588,-2.7452,-2.745,-2.7449,-2.7448,0,0,-2.7665,-2.7635,-2.7645,-2.7639,-2.7622,-2.7631,-2.7653,-2.7653,-2.766,-2.7655,-2.7671,-2.7684,-2.7655,-2.7654,-2.763,-2.7649,-2.7712,-2.7616,-2.7615,-2.7633,-2.7768,-2.7791,-2.7803,-2.7691,-2.7693,-2.7695,-2.7769,0,-2.7742,-2.7775,-2.7744,-2.7784,-2.7795,-2.7749,-2.7768,-2.7759,-2.7743,-2.775,-2.7732,-2.7741,-2.7703,-2.7702,-2.7719,-2.7701,-2.7738,-2.7695,-2.7706,-2.7707,-2.7709,-2.7815,-2.7839,-2.7909,-2.7778,-2.778,-2.7781,0,-2.7836,-2.7834,-2.7875,-2.7854,-2.7858,-2.7875,-2.7872,-2.788,-2.787,-2.7856,-2.7855,-2.7825,-2.7844,-2.7802,-2.7828,-2.7799,-2.7802,-2.7793,-2.7795,-2.7794,-2.7747,-2.7816,-2.7931,-2.7942,-2.7795,-2.7794,-2.7793,0,-2.7923,-2.7931,-2.7956,-2.7953,-2.793,-2.7943,-2.7934,-2.7921,-2.7923,-2.7921,-2.7922,-2.7923,-2.7923,-2.7925,-2.7896,-2.7868,-2.7926,-2.7881,-2.7915,-2.7915,-2.7928,-2.7928,-2.8045,-2.7932,-2.7932,-2.7932,-2.7931,0,-2.8011,-2.8038,-2.7995,-2.801,-2.8039,-2.8003,-2.8032,-2.8018,-2.8007,-2.8019,-2.798,-2.7992,-2.7954,-2.7962,-2.794,-2.7964,-2.7965,-2.7955,-2.7948,-2.7958,-2.7959,-2.7958,-2.7952,-2.7934,-2.7934,-2.7933,-2.7933,0,-2.8113,-2.8085,-2.8109,-2.8085,-2.8079,-2.8101,-2.808,-2.8094,-2.8075,-2.8091,-2.8092,-2.8063,-2.807,-2.8042,-2.8045,-2.803,-2.8066,-2.8052,-2.8069,-2.8065,-2.81,-2.8097,-2.822,-2.8234,-2.8113,-2.8115,-2.8116,0,-2.8171,-2.819,-2.8167,-2.8172,-2.8165,-2.8174,-2.8176,-2.8141,-2.8144,-2.8133,-2.8148,-2.8152,-2.8154,-2.8169,-2.8147,-2.815,-2.8135,-2.8178,-2.8135,-2.8143,-2.8134,-2.8133,-2.8134,-2.8186,-2.8188,-2.8189,-2.819,0,-2.8276,-2.8261,-2.8265,-2.8264,-2.8267,-2.8265,-2.8259,-2.8266,-2.8229,-2.8235,-2.8241,-2.8243,-2.8246,-2.825,-2.8248,-2.8239,-2.8208,-2.8204,-2.8212,-2.8221,-2.823,-2.8224,-2.8093,-2.8201,-2.82,-2.8199,-2.8199,-2.8198,-2.8357,-2.8372,-2.8358,-2.8363,-2.8356,-2.8352,-2.8363,-2.8345,-2.835,-2.8349,-2.8328,-2.8339,-2.8328,-2.8321,-2.8315,-2.8323,-2.8303,-2.8315,-2.8317,-2.8321,-2.8326,-2.8229,-2.8323,-2.8323,-2.8322,-2.8322,-2.8322,0,-2.846,-2.8448,-2.8454,-2.8447,-2.8452,-2.8422,-2.8415,-2.842,-2.843,-2.8422,-2.8424,-2.8432,-2.8436,-2.8415,-2.8417,-2.8427,-2.8413,-2.8429,-2.8427,-2.8425,-2.8345,-2.8337,-2.844,-2.844,-2.844,-2.844,-2.844,-2.844,-2.8514,-2.8536,-2.852,-2.8539,-2.8527,-2.8537,-2.8535,-2.8531,-2.8524,-2.8535,-2.8538,-2.8524,-2.851,-2.851,-2.8513,-2.8507,-2.8509,-2.8529,-2.8518,-2.8443,-2.8431,-2.842,-2.8413,-2.853,-2.853,-2.8597,-2.8598,-2.8598]},{"header":{"parameterUnit":"m.s-1","parameterCategory":1,"la1":30.2991,"la2":30.254,"lo1":-89.0895,"lo2":-89.0444,"dy":0.0017,"dx":0.0017,"nx":28,"ny":28,"refTime":"2023-09-01T03:00:00:Z","depth":0,"parameterNumber":3,"parameterNumberName":"V-component_of_WINDS"},"data":[0,0,0,0,0,0,0,0,0,0,0,0,0,0,0,0,0,0,0,0,0,0,0,0,0,0,0,0,0,0,0,0,0,0,0,0,0,0,0,0,0,0,0,0,0,0,0,0,0,0,0,0,0,0,0,0,0,0,-0.381,-0.3809,0,-0.3724,-0.3723,-0.3722,-0.3674,-0.3674,-0.3674,-0.3674,-0.358,-0.3578,-0.3575,0,0,0,0,0,0,0,0,0,0,0,0,0,-0.3924,-0.3922,-0.381,-0.3809,-0.3808,-0.3725,-0.3723,-0.3722,-0.3674,-0.3674,-0.3674,-0.3674,-0.3581,-0.3578,-0.3575,0,0,0,0,0,0,0,0,0,0,0,0,0,-0.386,-0.3921,-0.381,-0.3774,-0.377,-0.3725,-0.3723,-0.3722,-0.3674,-0.3674,-0.3674,-0.3674,-0.3582,-0.3578,-0.3575,-0.3557,0,0,-0.3564,-0.3562,0,0,0,0,0,0,0,0,-0.3864,-0.3856,-0.378,-0.3776,-0.3772,-0.371,-0.3729,-0.3666,-0.3675,-0.371,-0.3674,-0.3674,-0.3623,-0.3616,-0.36,-0.3553,-0.3549,-0.3564,-0.3562,-0.356,-0.3559,0,0,0,0,0,0,0,-0.3868,-0.3859,-0.3776,-0.3779,-0.3774,-0.376,-0.375,-0.3717,-0.3669,-0.3707,-0.3704,-0.3695,-0.3621,-0.3604,-0.3598,-0.3547,-0.3564,-0.3561,-0.3558,-0.3557,-0.3478,-0.3478,0,0,0,0,0,0,-0.3879,-0.3863,-0.3778,-0.3773,-0.3818,-0.3758,-0.3747,-0.373,-0.3669,-0.366,-0.3695,-0.3693,-0.361,-0.3602,-0.3594,-0.3568,-0.356,-0.3557,-0.3555,-0.3478,-0.3478,-0.3478,0,0,0,0,0,0,-0.3882,-0.3872,-0.3782,-0.3817,-0.3805,-0.3756,-0.3737,-0.3728,-0.3712,-0.366,-0.365,-0.3687,-0.361,-0.3599,-0.3567,-0.3564,-0.3555,-0.3552,-0.3478,-0.3478,-0.3478,-0.3517,0,0,0,0,0,0,-0.3885,-0.3873,-0.3868,-0.3817,-0.3803,-0.3758,-0.3737,-0.3727,-0.3706,-0.3703,-0.365,-0.3641,-0.3609,-0.3572,-0.3563,-0.3559,-0.3549,-0.3478,-0.3478,-0.3478,-0.3516,-0.3519,-0.3521,0,0,0,0,0,-0.389,-0.3881,-0.3868,-0.3858,-0.3796,-0.3758,-0.375,-0.3715,-0.3707,-0.3699,-0.3666,-0.3643,-0.3566,-0.3569,-0.3559,-0.3554,-0.3478,-0.3478,-0.3478,-0.3515,-0.3518,-0.3521,0,0,0,0,0,0,-0.3931,-0.3874,-0.3859,-0.3834,-0.3802,-0.375,-0.374,-0.3719,-0.3687,-0.3684,-0.364,-0.3628,-0.36,-0.3573,-0.3578,-0.3532,-0.3519,-0.3517,-0.3551,-0.3554,-0.3556,-0.3563,-0.3546,0,0,0,0,0,-0.3938,-0.3915,-0.3865,-0.3848,-0.3833,-0.379,-0.3772,-0.3748,-0.3711,-0.3696,-0.366,-0.3624,-0.3591,-0.3571,-0.3538,-0.3511,-0.3498,-0.3503,-0.3505,-0.3507,-0.3506,-0.3488,-0.3489,-0.3478,-0.3478,-0.3478,0,0,-0.3951,-0.3917,-0.3904,-0.3856,-0.3827,-0.3802,-0.3778,-0.3752,-0.3732,-0.3692,-0.3659,-0.3631,-0.3587,-0.3557,-0.3542,-0.3534,-0.3506,-0.3508,-0.351,-0.3507,-0.3488,-0.3489,-0.349,-0.3478,-0.3478,-0.3478,0,0,-0.3961,-0.3934,-0.3917,-0.3889,-0.3847,-0.3818,-0.3814,-0.3765,-0.3746,-0.3713,-0.3682,-0.3655,-0.3601,-0.3571,-0.3548,-0.3545,-0.3522,-0.3536,-0.3549,-0.3532,-0.3533,-0.3533,-0.3531,-0.3531,-0.3534,-0.3535,-0.3535,0,-0.3982,-0.3945,-0.391,-0.3886,-0.3864,-0.3828,-0.3809,-0.3783,-0.3731,-0.3716,-0.3709,-0.3639,-0.3606,-0.3568,-0.3568,-0.3551,-0.3543,-0.3542,-0.3536,-0.3536,-0.3536,-0.3533,-0.3533,-0.3536,-0.3536,-0.3536,-0.3536,0,-0.3972,-0.3946,-0.3937,-0.389,-0.3868,-0.3846,-0.3805,-0.3786,-0.3763,-0.3734,-0.3699,-0.3659,-0.3617,-0.3606,-0.3583,-0.3564,-0.356,-0.3545,-0.3531,-0.3539,-0.3536,-0.3535,-0.3539,-0.3538,-0.3538,-0.3537,0,0,-0.4007,-0.3941,-0.3938,-0.3916,-0.3867,-0.3845,-0.382,-0.3781,-0.3765,-0.373,-0.3707,-0.3661,-0.3646,-0.3621,-0.3593,-0.3578,-0.3577,-0.3564,-0.3562,-0.3567,-0.3552,-0.3564,-0.3563,-0.3562,-0.3561,-0.3561,-0.3555,0,-0.401,-0.3968,-0.3934,-0.3903,-0.3878,-0.3842,-0.382,-0.3786,-0.3758,-0.373,-0.3697,-0.3666,-0.3649,-0.3633,-0.3617,-0.3581,-0.3573,-0.3581,-0.3537,-0.3536,-0.355,-0.3562,-0.3575,-0.3571,-0.3554,-0.3553,-0.3553,0,-0.4009,-0.3977,-0.3944,-0.3896,-0.3884,-0.3866,-0.3826,-0.3801,-0.376,-0.3741,-0.3712,-0.3684,-0.3653,-0.3642,-0.3598,-0.3604,-0.3584,-0.3563,-0.3562,-0.3556,-0.3546,-0.3556,-0.3569,-0.3569,-0.3551,-0.3551,-0.3551,0,-0.4037,-0.3986,-0.3959,-0.3942,-0.3885,-0.3873,-0.3848,-0.3808,-0.3786,-0.375,-0.3735,-0.3696,-0.3674,-0.3643,-0.3603,-0.3599,-0.3563,-0.3549,-0.3543,-0.3545,-0.3538,-0.3539,-0.3548,-0.3525,-0.3525,-0.3525,-0.3525,0,-0.4044,-0.4025,-0.3971,-0.3955,-0.3931,-0.3892,-0.3869,-0.3841,-0.3805,-0.378,-0.3745,-0.3722,-0.3672,-0.3642,-0.3611,-0.3579,-0.3569,-0.355,-0.3542,-0.3553,-0.3556,-0.3539,-0.3538,-0.3525,-0.3525,-0.3525,-0.3525,0,-0.4072,-0.4036,-0.4004,-0.3954,-0.394,-0.3925,-0.388,-0.3861,-0.3831,-0.38,-0.379,-0.3742,-0.3704,-0.3662,-0.3611,-0.3589,-0.3559,-0.3547,-0.3573,-0.3569,-0.3565,-0.3566,-0.3564,-0.3561,-0.3542,-0.3542,-0.3542,0,-0.4079,-0.4064,-0.4012,-0.3994,-0.3971,-0.3942,-0.392,-0.388,-0.3857,-0.3809,-0.3795,-0.3756,-0.3723,-0.3664,-0.3622,-0.3582,-0.3569,-0.3571,-0.3562,-0.3574,-0.3568,-0.3569,-0.3566,-0.3573,-0.3574,-0.3574,-0.3574,0,-0.4095,-0.4077,-0.4048,-0.4012,-0.3987,-0.3956,-0.3923,-0.391,-0.3862,-0.3838,-0.3801,-0.3775,-0.3723,-0.3683,-0.3638,-0.3609,-0.3583,-0.3577,-0.3574,-0.3585,-0.3601,-0.3591,-0.3579,-0.3577,-0.3577,-0.3577,-0.3577,-0.3577,-0.4112,-0.4096,-0.4057,-0.4025,-0.3996,-0.3966,-0.3946,-0.3914,-0.3883,-0.3839,-0.3815,-0.3778,-0.3735,-0.3671,-0.3643,-0.3611,-0.3603,-0.3598,-0.3597,-0.3596,-0.3599,-0.3606,-0.3603,-0.3603,-0.3602,-0.3602,-0.3602,0,-0.4125,-0.4098,-0.4069,-0.4026,-0.4,-0.3979,-0.3942,-0.392,-0.3889,-0.3852,-0.382,-0.3776,-0.3737,-0.3692,-0.365,-0.3633,-0.3619,-0.3623,-0.3623,-0.3617,-0.3609,-0.3616,-0.3634,-0.3634,-0.3634,-0.3634,-0.3634,-0.3634,-0.4129,-0.4102,-0.4079,-0.4036,-0.4008,-0.3973,-0.3953,-0.3924,-0.3894,-0.3848,-0.3816,-0.3788,-0.3747,-0.3701,-0.3663,-0.365,-0.3636,-0.3643,-0.3626,-0.362,-0.3618,-0.3615,-0.3621,-0.364,-0.364,-0.3636,-0.3636,-0.3636]}]]